Location: Bothwell
(42.3833°S, 147.0000°E)
Time: 08:13:08
(UTC+11:00)

Oscar 19 - Pass Details

Date: 03 December 2023
Orbit: 771 x 789 km, 98.9° (Epoch: 26 February)

Event Time Altitude Azimuth Distance (km) Brightness Sun altitude
Rises 04:25:21 0° 31° (NNE) 3,280 13.7 -10.3°
Reaches altitude 10° 04:27:42 10° 36° (NE) 2,360 13.1 -10.0°
Maximum altitude 04:32:43 50° 110° (ESE) 1,018 11.7 -9.3°
Drops below altitude 10° 04:37:48 10° 183° (S) 2,388 13.7 -8.6°
Sets 04:40:12 0° 188° (S) 3,323 14.4 -8.2°
